Zurück zum Katalog

COSMOS 2435

GLONASS

AktivNavigationMEO
NORAD 32394·PAYLOAD·🇷🇺 Russia

Gestartet Dec 25, 2007 von Baikonur Cosmodrome

Loading…

Nächste Überflüge (nächste 24 Stunden)

TLE

AktuellSource: Space-Track

Epoche: Sep 14, 2026, 00:21 UTC

1 32394U 07065B   26257.01520103  .00000018  00000-0  00000-0 0  9992
2 32394  64.3226 188.9166 0025257 358.4227   1.5730  2.13115365145639

Verfolge COSMOS 2435 in Echtzeit mit AllMySat

Download on the App Store